DECAYED

CZ-6A DEB, 54887 (Decayed)

Orbit data source: Space-Track

CZ-6A DEB, 54887 was space debris in SSO originally from a launch on Fri, 11 Nov 2022 UTC launched from the Taiyaun Space Center, China (TSC). Debris objects in space refer to the collection of defunct objects orbiting the Earth. Examples of debris include non-operational satellites, rocket bodies, and fragments generated from explosions, collisions, or faulty payload assembly.

Loading next visibility...
Identifier
54887, 2022-151PY
Orbit
Decayed
Country
Flag of CNCN / PRC
Related business
Manufacturer
SAST
Mission
Decayed spacecraft
Bus & Motor
Unknown
Mass
Unknown
Launch date (UTC)
2022-11-11 (3 years ago)
Launch vehicle
Unknown
Launch site
Taiyaun Space Center, China (TSC)
Object type
Payload
Rocket body
Debris
Shape & HBR
Unknown shape, 1.1 m
Radar Cross Section
Small (<0.1 m²)

Expand to show TLE details & history
Last TLE update: 1 month ago

TLE from 1 month ago
0 CZ-6A DEB
1 54887U 22151PY  25316.17259191  .05191375  00000-0  31730-1 0  9991
2 54887  98.5488  25.1612 0007734 269.4613  90.5761 15.73423661157318
Epoch: 2025-11-12T04:08Z
TLE epoch observation values (Epoch: 2025-11-12T04:08:31.941Z)
Latitude
-0.00001°
Longitude
-88.52049°
Altitude
352.303 km
Speed
7.698 km/s
True Right ascension
01h 40m 38s
True Declination
0° 00' 00"
Sunlit
Object was in full shadow at epoch
Visualization orbit readout
Latitude
Unknown
Longitude
Unknown
Altitude
Unknown
Speed
Unknown
Apparent Right ascension
Unknown
Apparent Declination
Unknown
Sunlit
N/A
Visualization observer readout
Local Sidereal Time
12:00:24
Azimuth
Unknown
Elevation
Unknown
Doppler factor
Unknown
Orbital elements
Apogee altitude
351.27 km
Perigee altitude
340.869 km
Semi-major axis
6,724.206 km
Eccentricity
0.00077
Inclination
98.5488°
RAAN
25.1612°
Arg. of periapsis
269.4613°
True anomaly
90.66472°
Mean anomaly
90.5761°
Eccentric anomaly
90.62041°
Mean motion
3.93624 °/min
Orbital period
91.46 mins
BSTAR
0.03173
Loading maneuver chart data...
Computing Atmospheric mass density...
Loading historical data...
Loading historical data...
Loading historical data...
Loading historical data...
Loading historical data...
Loading historical data...
Loading historical data...

Documentation

Showing up to 5 results
|